Juliana Airport, Sint Maarten

6:49 PM AST on September 21, 2017 (GMT -0400)
Princess Juliana International

Weather History for TNCM - March, 2013

Change the Weather History Date:

Saturday, March 16, 2013

  Actual Average Record
Temperature  
Mean Temperature 78 °F -  
Max Temperature 84 °F 83 °F 86 °F (2001)
Min Temperature 73 °F 73 °F 71 °F (2007)
Cooling Degree Days 14    
Growing Degree Days 28 (Base 50)    
Moisture  
Dew Point 62 °F    
Average Humidity 55    
Maximum Humidity 69    
Minimum Humidity 29    
Precipitation  
Precipitation 0.00 in 0.07 in - ()
Sea Level Pressure  
Sea Level Pressure 30.00 in    
Wind  
Wind Speed 7 mph ()    
Max Wind Speed 98 mph    
Max Gust Speed -    
Visibility 6.2 miles    
Events      
Averages and records for this station are not official NWS values.
T = Trace of Precipitation, MM = Missing Value Source: Averaged Metar Reports

Daily Weather History Graph

Daily Weather History Graph

Search for Another Location

Airport or City:

Trip Planner

Search our weather history database for the weather conditions in past years. The results will help you decide how hot, cold, wet, or windy it might be!

Date:

Astronomy

Mar. 16, 2013 Rise Set
Actual Time 6:19 AM AST 6:22 PM AST
Civil Twilight 5:57 AM AST 6:44 PM AST
Nautical Twilight 5:32 AM AST 7:09 PM AST
Astronomical Twilight 5:07 AM AST 7:34 PM AST
Moon 9:28 AM AST (3/16) 10:42 PM AST (3/16)
Length of Visible Light 12h 46m
Length of Day
12h 02m
Waxing Crescent, 23% of the Moon is Illuminated
Mar 16
Waxing Crescent
Mar 19
First Quarter
Mar 27
Full
Apr 3
Last Quarter
Apr 10
New

Hourly Weather History & Observations

Time (AST) Temp. Heat Index Dew Point Humidity Pressure Visibility Wind Dir Wind Speed Gust Speed Precip Events Conditions
12:00 AM 77.0 °F - 64.4 °F 65% 30.01 in 6.2 mi ENE 4.6 mph - N/A   Mostly Cloudy
1:00 AM 77.0 °F - 64.4 °F 65% 29.98 in 6.2 mi ENE 4.6 mph - N/A   Mostly Cloudy
2:00 AM 76 °F - 64 °F 57% 29.99 in 37 mi 3.5 mph - -   Mostly Cloudy
2:00 AM 77.0 °F - 64.4 °F 65% 29.98 in 6.2 mi Variable 3.5 mph - N/A   Mostly Cloudy
3:00 AM 77.0 °F - 64.4 °F 65% 29.95 in 6.2 mi East 5.8 mph - N/A   Mostly Cloudy
4:00 AM 77.0 °F - 62.6 °F 61% 29.98 in 6.2 mi ENE 5.8 mph - N/A   Mostly Cloudy
5:00 AM 75 °F - 64 °F 59% 29.99 in 37 mi ENE 4.6 mph - -   Scattered Clouds
5:00 AM 75.2 °F - 64.4 °F 69% 29.98 in 6.2 mi NE 4.6 mph - N/A   Partly Cloudy
6:00 AM 75.2 °F - 62.6 °F 65% 29.98 in 6.2 mi East 6.9 mph - N/A   Partly Cloudy
7:00 AM 77.0 °F - 62.6 °F 61% 29.98 in 6.2 mi East 5.8 mph - N/A   Partly Cloudy
8:00 AM 79 °F - 63 °F 48% 30.02 in 47 mi ESE 5.8 mph - -   Scattered Clouds
8:00 AM 78.8 °F - 62.6 °F 57% 30.01 in 6.2 mi ESE 5.8 mph - N/A   Partly Cloudy
9:00 AM 80.6 °F 81.5 °F 60.8 °F 51% 30.04 in 6.2 mi ESE 5.8 mph - N/A   Scattered Clouds
10:00 AM 78.8 °F - 62.6 °F 57% 30.04 in 6.2 mi ENE 6.9 mph - N/A   Scattered Clouds
11:00 AM 83 °F - 56 °F 29% 30.04 in 47 mi ESE 4.6 mph - -   Partly Cloudy
11:00 AM 82.4 °F 81.7 °F 55.4 °F 39% 30.04 in 6.2 mi East 4.6 mph - N/A   Scattered Clouds
12:00 PM 82.4 °F 82.0 °F 57.2 °F 42% 30.01 in 6.2 mi East 8.1 mph - N/A   Scattered Clouds
1:00 PM 82.4 °F 82.9 °F 60.8 °F 48% 29.98 in 6.2 mi East 8.1 mph - N/A   Scattered Clouds
2:00 PM 82 °F - 60 °F 38% 29.98 in 47 mi East 9.2 mph - -   Scattered Clouds
2:00 PM 82.4 °F 82.9 °F 60.8 °F 48% 29.98 in 6.2 mi East 9.2 mph - N/A   Partly Cloudy
3:00 PM 82.4 °F 82.5 °F 59.0 °F 45% 29.95 in 6.2 mi East 8.1 mph - N/A   Partly Cloudy
4:00 PM 82.4 °F 82.9 °F 60.8 °F 48% 29.95 in 6.2 mi East 5.8 mph - N/A   Partly Cloudy
5:00 PM 81 °F - 62 °F 43% 29.98 in 44 mi East 9.2 mph - -   Scattered Clouds
5:00 PM 80.6 °F 81.8 °F 62.6 °F 54% 29.98 in 6.2 mi East 97.8 mph - N/A   Partly Cloudy
6:00 PM 78.8 °F - 60.8 °F 54% 29.98 in 6.2 mi East 10.4 mph - N/A   Partly Cloudy
7:00 PM 77.0 °F - 62.6 °F 61% 30.01 in 6.2 mi NE 9.2 mph - N/A   Partly Cloudy
8:00 PM 77 °F - 62 °F 51% 30.03 in 44 mi ENE 8.1 mph - -   Scattered Clouds
8:00 PM 77.0 °F - 62.6 °F 61% 30.01 in 6.2 mi ENE 8.1 mph - N/A   Partly Cloudy
9:00 PM 77.0 °F - 62.6 °F 61% 30.04 in 6.2 mi ENE 9.2 mph - N/A   Partly Cloudy
10:00 PM 77.0 °F - 62.6 °F 61% 30.06 in 6.2 mi ENE 8.1 mph - N/A   Scattered Clouds
11:00 PM 76 °F - 64 °F 57% 30.06 in 37 mi East 9.2 mph - -   Scattered Clouds
11:00 PM 77.0 °F - 64.4 °F 65% 30.06 in 6.2 mi ENE 10.4 mph - N/A   Partly Cloudy